User: anonymous   Login
Location: Unspecified
(0.0000°N, 0.0000°E)
Time: 06:45:01
(UTC+00:00)
Language:

Cosmos 2037 - Orbit

View from above orbital plane
View from above orbital plane
View from above satellite
View from above satellite

Ground track
Ground track

The orbit data is extracted from the following two-line orbital elements,

1 20196U 89068A   18173.71085174 -.00000026 +00000-0 -66485-4 0  9995
2 20196 073.5668 256.7304 0025226 030.8203 080.8555 12.40585870304250
Epoch (UTC): 22 June 2018 17:03:37
Eccentricity: 0.0025226
inclination: 73.5668°
perigee height: 1484 km
apogee height: 1524 km
right ascension of ascending node: 256.7304°
argument of perigee: 30.8203°
revolutions per day: 12.40585870
mean anomaly at epoch: 80.8555°
orbit number at epoch: 30425

The dashed part of the orbit path shows where the satellite is in the earth's shadow,  

DLR